User: anonymous   Login
Location: Grand Rapids
(42.9630°N, 85.6680°W)
Time: 02:13:58
(UTC-04:00)
Language:

Courier 1B - Orbit

View from above orbital plane
View from above orbital plane
View from above satellite
View from above satellite

Ground track
Ground track

The orbit data is extracted from the following two-line orbital elements,

1    58U 60013A   24150.84145139  .00000118  00000-0  50549-4 0  9997
2    58  28.3292 336.8239 0164804 131.3034 230.1824 13.46376645133678
Epoch (UTC): 29 May 2024 20:11:41
Eccentricity: 0.0164804
inclination: 28.3292°
perigee height: 962 km
apogee height: 1208 km
right ascension of ascending node: 336.8239°
argument of perigee: 131.3034°
revolutions per day: 13.46376645
mean anomaly at epoch: 230.1824°
orbit number at epoch: 13367

The dashed part of the orbit path shows where the satellite is in the earth's shadow,  

DLR